Change the Weather History Date:

Monday, August 19, 2013

  Actual Average Record
Temperature  
Mean Temperature 78 °F -  
Max Temperature 86 °F 80 °F - ()
Min Temperature 71 °F 71 °F - ()
Cooling Degree Days 14    
Growing Degree Days 28 (Base 50)    
Moisture  
Dew Point 70 °F    
Average Humidity 81    
Maximum Humidity 100    
Minimum Humidity 50    
Precipitation  
Precipitation 0.00 in 0.06 in - ()
Sea Level Pressure  
Sea Level Pressure 29.97 in    
Wind  
Wind Speed 4 mph ()    
Max Wind Speed 14 mph    
Max Gust Speed -    
Visibility 10.6 miles    
Events      
T = Trace of Precipitation, MM = Missing Value Source: Averaged Metar Reports

Daily Weather History Graph

Daily Weather History Graph

Search for Another Location

Airport or City:

Trip Planner

Search our weather history database for the weather conditions in past years. The results will help you decide how hot, cold, wet, or windy it might be!

Date:

Astronomy

Aug. 19, 2013 Rise Set
Actual Time 6:28 AM EAT 6:24 PM EAT
Civil Twilight 6:07 AM EAT 6:45 PM EAT
Nautical Twilight 5:43 AM EAT 7:10 PM EAT
Astronomical Twilight 5:18 AM EAT 7:35 PM EAT
Moon 4:53 PM EAT (8/19) 4:37 AM EAT (8/19)
Length of Visible Light 12h 38m
Length of Day
11h 55m
Waxing Gibbous, 96% of the Moon is Illuminated
Aug 19
Waxing Gibbous
Aug 21
Full
Aug 28
Last Quarter
Sep 5
New
Sep 12
First Quarter

Hourly Weather History & Observations

Time (EAT) Temp. Heat Index Dew Point Humidity Pressure Visibility Wind Dir Wind Speed Gust Speed Precip Events Conditions
12:00 AM 73 °F - 70 °F 87% 29.96 in 19 mi East 5.8 mph - -   Scattered Clouds
12:00 AM 73.4 °F - 69.8 °F 88% 29.95 in 6.2 mi East 5.8 mph - N/A   Partly Cloudy
1:00 AM 73.4 °F - 69.8 °F 88% 29.95 in 6.2 mi Calm Calm - N/A   Partly Cloudy
2:00 AM 71.6 °F - 71.6 °F 100% 29.92 in 6.2 mi Calm Calm - N/A   Partly Cloudy
3:00 AM 72 °F - 71 °F 95% 29.92 in 16 mi Calm Calm - -   Partly Cloudy
3:00 AM 71.6 °F - 71.6 °F 100% 29.92 in 6.2 mi Calm Calm - N/A   Scattered Clouds
4:00 AM 73.4 °F - 69.8 °F 88% 29.92 in 6.2 mi Calm Calm - N/A   Partly Cloudy
5:00 AM 73.4 °F - 69.8 °F 88% 29.92 in 6.2 mi Calm Calm - N/A   Partly Cloudy
6:00 AM 74 °F - 71 °F 86% 29.95 in 16 mi Calm Calm - -   Scattered Clouds
6:00 AM 73.4 °F - 69.8 °F 88% 29.95 in 6.2 mi Calm Calm - N/A   Partly Cloudy
8:00 AM 75.2 °F - 71.6 °F 89% 29.98 in 6.2 mi Calm Calm - N/A   Scattered Clouds
9:00 AM 80 °F - 71 °F 67% 30.02 in 19 mi SE 11.5 mph - -   Mostly Cloudy
9:00 AM 80.6 °F 84.6 °F 71.6 °F 74% 30.01 in 6.2 mi SE 11.5 mph - N/A   Mostly Cloudy
10:00 AM 82.4 °F 86.3 °F 69.8 °F 66% 30.01 in 6.2 mi East 11.5 mph - N/A   Mostly Cloudy
12:00 PM 83 °F - 70 °F 57% 30.00 in 19 mi ESE 13.8 mph - -   Mostly Cloudy
12:00 PM 82.4 °F 86.3 °F 69.8 °F 66% 29.98 in 6.2 mi ESE 13.8 mph - N/A   Mostly Cloudy
3:00 PM 84 °F - 68 °F 50% 29.94 in 19 mi East 11.5 mph - -   Partly Cloudy
6:00 PM 81 °F - 66 °F 52% 29.94 in 19 mi East 13.8 mph - -   Scattered Clouds
9:00 PM 76 °F - 72 °F 86% 30.00 in 19 mi East 4.6 mph - -   Scattered Clouds
9:00 PM 75.2 °F - 71.6 °F 89% 29.98 in 6.2 mi East 4.6 mph - N/A   Partly Cloudy
10:00 PM 75.2 °F - 71.6 °F 89% 30.01 in 6.2 mi SSE 6.9 mph - N/A   Partly Cloudy
11:00 PM 73.4 °F - 71.6 °F 94% 30.01 in 6.2 mi Calm Calm - N/A   Partly Cloudy